Private Wetterstation Sandau
Wetterdaten: Woche 19.11.12 - 25.11.12 (KW47)
Datum Zeit Temp. A. Feuchte A. Luftdruck Regen Wind Richtung Taupunkt Windchill
19.11.2012 00:00 5,3 C 94 % 1019,1 hPa 0,0 l/m 0,0 km/h (0 Bft) N 4,4 C 5,3 C
19.11.2012 01:00 5,0 C 94 % 1019,4 hPa 0,0 l/m 0,4 km/h (0 Bft) N 4,1 C 5,0 C
19.11.2012 02:00 4,1 C 94 % 1019,9 hPa 0,0 l/m 0,8 km/h (0 Bft) N 3,1 C 4,1 C
19.11.2012 03:00 3,7 C 93 % 1020,0 hPa 0,0 l/m 0,3 km/h (0 Bft) W-SW 2,7 C 3,7 C
19.11.2012 04:00 2,9 C 93 % 1020,2 hPa 0,5 l/m 0,0 km/h (0 Bft) N 2,0 C 2,9 C
19.11.2012 05:00 2,3 C 94 % 1020,5 hPa 0,0 l/m 0,0 km/h (0 Bft) N 1,5 C 2,3 C
19.11.2012 06:00 1,9 C 94 % 1020,8 hPa 0,0 l/m 0,0 km/h (0 Bft) N 1,0 C 1,9 C
19.11.2012 07:00 1,2 C 93 % 1021,0 hPa 0,0 l/m 0,2 km/h (0 Bft) SO 0,2 C 1,2 C
19.11.2012 08:00 0,5 C 94 % 1021,4 hPa 0,0 l/m 1,2 km/h (1 Bft) O-SO -0,3 C 0,5 C
19.11.2012 09:00 0,7 C 94 % 1021,5 hPa 0,0 l/m 2,2 km/h (1 Bft) O-SO -0,1 C 0,7 C
19.11.2012 10:00 2,0 C 94 % 1021,6 hPa 0,0 l/m 2,6 km/h (1 Bft) O-SO 1,1 C 1,7 C
19.11.2012 11:00 3,8 C 94 % 1021,2 hPa 0,0 l/m 3,6 km/h (1 Bft) SO 2,9 C 3,5 C
19.11.2012 12:00 5,0 C 94 % 1021,0 hPa 0,0 l/m 5,7 km/h (1 Bft) SO 4,1 C 3,9 C
19.11.2012 13:00 5,4 C 94 % 1020,8 hPa 0,0 l/m 3,8 km/h (1 Bft) SO 4,6 C 5,0 C
19.11.2012 14:00 5,6 C 94 % 1020,6 hPa 0,0 l/m 5,6 km/h (1 Bft) O-SO 4,7 C 4,7 C
19.11.2012 15:00 5,8 C 94 % 1020,5 hPa 0,0 l/m 4,8 km/h (1 Bft) SO 4,9 C 5,3 C
19.11.2012 16:00 6,0 C 94 % 1020,5 hPa 0,0 l/m 5,0 km/h (1 Bft) SO 5,1 C 5,3 C
19.11.2012 17:00 6,1 C 94 % 1020,7 hPa 0,0 l/m 6,3 km/h (2 Bft) SO 5,2 C 5,1 C
19.11.2012 18:00 6,2 C 95 % 1020,8 hPa 0,0 l/m 8,5 km/h (2 Bft) SO 5,5 C 4,6 C
19.11.2012 19:00 6,4 C 95 % 1020,5 hPa 0,0 l/m 7,1 km/h (2 Bft) SO 5,6 C 5,1 C
19.11.2012 20:00 6,5 C 95 % 1020,4 hPa 0,0 l/m 6,1 km/h (2 Bft) S-SO 5,7 C 5,7 C
19.11.2012 21:00 6,6 C 95 % 1020,3 hPa 0,0 l/m 6,4 km/h (2 Bft) S-SO 5,9 C 5,7 C
19.11.2012 22:00 6,7 C 95 % 1020,4 hPa 0,0 l/m 4,8 km/h (1 Bft) S-SO 6,0 C 6,1 C
19.11.2012 23:00 6,7 C 95 % 1020,6 hPa 0,0 l/m 4,6 km/h (1 Bft) S-SO 5,9 C 6,2 C
20.11.2012 00:00 6,7 C 94 % 1020,8 hPa 0,0 l/m 4,5 km/h (1 Bft) S-SO 5,8 C 6,2 C
20.11.2012 01:00 6,6 C 94 % 1020,8 hPa 0,0 l/m 5,2 km/h (1 Bft) S-SO 5,7 C 6,0 C
20.11.2012 02:00 6,6 C 94 % 1020,8 hPa 0,0 l/m 7,5 km/h (2 Bft) S-SO 5,7 C 5,2 C
20.11.2012 03:00 6,5 C 94 % 1020,6 hPa 0,0 l/m 4,6 km/h (1 Bft) S-SO 5,6 C 5,9 C
20.11.2012 04:00 6,3 C 94 % 1020,6 hPa 0,0 l/m 4,9 km/h (1 Bft) S-SO 5,4 C 5,6 C
20.11.2012 05:00 6,1 C 93 % 1020,6 hPa 0,0 l/m 5,0 km/h (1 Bft) SO 5,1 C 5,3 C
20.11.2012 06:00 6,0 C 93 % 1020,8 hPa 0,0 l/m 4,3 km/h (1 Bft) S-SO 5,0 C 5,5 C
20.11.2012 07:00 5,9 C 94 % 1021,1 hPa 0,0 l/m 4,8 km/h (1 Bft) SO 4,9 C 5,2 C
20.11.2012 08:00 5,5 C 94 % 1021,6 hPa 0,0 l/m 3,4 km/h (1 Bft) SO 4,6 C 5,2 C
20.11.2012 09:00 5,4 C 94 % 1022,1 hPa 0,0 l/m 3,7 km/h (1 Bft) SO 4,5 C 5,0 C
20.11.2012 10:00 5,2 C 94 % 1021,9 hPa 0,0 l/m 5,6 km/h (1 Bft) SO 4,3 C 4,3 C
20.11.2012 11:00 5,2 C 94 % 1022,2 hPa 0,0 l/m 4,4 km/h (1 Bft) SO 4,3 C 4,6 C
20.11.2012 12:00 5,6 C 93 % 1022,0 hPa 0,0 l/m 6,2 km/h (2 Bft) SO 4,6 C 4,4 C
20.11.2012 13:00 5,5 C 93 % 1021,9 hPa 0,0 l/m 5,2 km/h (1 Bft) SO 4,4 C 4,5 C
20.11.2012 14:00 5,4 C 93 % 1021,7 hPa 0,0 l/m 5,3 km/h (1 Bft) SO 4,4 C 4,6 C
20.11.2012 15:00 5,5 C 93 % 1021,8 hPa 0,0 l/m 4,6 km/h (1 Bft) S-SO 4,5 C 5,0 C
20.11.2012 16:00 5,0 C 92 % 1021,6 hPa 0,0 l/m 6,6 km/h (2 Bft) SO 3,8 C 3,6 C
20.11.2012 17:00 4,7 C 93 % 1021,7 hPa 0,0 l/m 3,2 km/h (1 Bft) O-SO 3,7 C 4,3 C
20.11.2012 18:00 4,6 C 94 % 1021,8 hPa 0,0 l/m 2,8 km/h (1 Bft) SO 3,7 C 4,2 C
20.11.2012 19:00 4,9 C 94 % 1022,0 hPa 0,0 l/m 0,6 km/h (0 Bft) O-SO 4,0 C 4,9 C
20.11.2012 20:00 5,2 C 94 % 1021,9 hPa 0,0 l/m 1,7 km/h (1 Bft) O-SO 4,3 C 5,2 C
20.11.2012 21:00 5,4 C 95 % 1021,7 hPa 0,0 l/m 2,9 km/h (1 Bft) SO 4,7 C 5,3 C
20.11.2012 22:00 5,7 C 94 % 1021,6 hPa 0,0 l/m 2,5 km/h (1 Bft) S-SO 4,9 C 5,6 C
20.11.2012 23:00 5,8 C 94 % 1021,5 hPa 0,0 l/m 5,1 km/h (1 Bft) SO 4,9 C 5,0 C
21.11.2012 00:00 5,8 C 94 % 1021,2 hPa 0,0 l/m 6,1 km/h (2 Bft) SO 4,9 C 4,7 C
21.11.2012 01:00 5,8 C 94 % 1021,0 hPa 0,0 l/m 3,9 km/h (1 Bft) SO 4,9 C 5,4 C
21.11.2012 02:00 5,9 C 94 % 1020,6 hPa 0,0 l/m 5,9 km/h (2 Bft) SO 5,0 C 4,9 C
21.11.2012 03:00 6,0 C 93 % 1020,3 hPa 0,0 l/m 5,6 km/h (1 Bft) SO 5,0 C 5,1 C
21.11.2012 04:00 5,9 C 93 % 1019,9 hPa 0,0 l/m 5,1 km/h (1 Bft) SO 4,9 C 5,0 C
21.11.2012 05:00 5,9 C 93 % 1019,6 hPa 0,0 l/m 5,6 km/h (1 Bft) SO 4,9 C 5,0 C
21.11.2012 06:00 5,9 C 93 % 1019,4 hPa 0,0 l/m 5,2 km/h (1 Bft) SO 4,9 C 5,3 C
21.11.2012 07:00 5,9 C 93 % 1019,3 hPa 0,0 l/m 5,6 km/h (1 Bft) S-SO 4,9 C 5,0 C
21.11.2012 08:00 6,0 C 93 % 1019,4 hPa 0,0 l/m 7,8 km/h (2 Bft) O-SO 5,0 C 4,4 C
21.11.2012 09:00 5,8 C 93 % 1019,3 hPa 0,0 l/m 6,7 km/h (2 Bft) SO 4,8 C 4,6 C
21.11.2012 10:00 5,2 C 93 % 1019,2 hPa 0,0 l/m 10,7 km/h (2 Bft) S-SO 4,1 C 2,8 C
21.11.2012 11:00 5,4 C 93 % 1018,6 hPa 0,0 l/m 10,4 km/h (2 Bft) SO 4,4 C 3,2 C
21.11.2012 12:00 6,2 C 93 % 1018,2 hPa 0,0 l/m 8,8 km/h (2 Bft) SO 5,1 C 4,5 C
21.11.2012 13:00 7,0 C 90 % 1017,4 hPa 0,0 l/m 9,1 km/h (2 Bft) S-SO 5,5 C 5,3 C
21.11.2012 14:00 7,7 C 88 % 1016,7 hPa 0,0 l/m 10,1 km/h (2 Bft) SO 5,8 C 6,0 C
21.11.2012 15:00 7,6 C 87 % 1016,5 hPa 0,0 l/m 8,1 km/h (2 Bft) SO 5,6 C 6,2 C
21.11.2012 16:00 6,1 C 90 % 1016,8 hPa 0,0 l/m 5,8 km/h (2 Bft) O-SO 4,6 C 5,2 C
21.11.2012 17:00 5,1 C 92 % 1016,7 hPa 0,0 l/m 8,5 km/h (2 Bft) O-SO 3,9 C 3,3 C
21.11.2012 18:00 4,7 C 93 % 1016,6 hPa 0,0 l/m 7,0 km/h (2 Bft) SO 3,7 C 3,2 C
21.11.2012 19:00 4,3 C 94 % 1016,7 hPa 0,0 l/m 4,1 km/h (1 Bft) SO 3,4 C 3,9 C
21.11.2012 20:00 3,9 C 94 % 1016,7 hPa 0,0 l/m 4,9 km/h (1 Bft) SO 3,0 C 3,1 C
21.11.2012 21:00 3,5 C 94 % 1017,1 hPa 0,0 l/m 3,9 km/h (1 Bft) SO 2,7 C 2,9 C
21.11.2012 22:00 3,4 C 94 % 1017,4 hPa 0,0 l/m 3,0 km/h (1 Bft) SO 2,5 C 3,2 C
21.11.2012 23:00 2,8 C 94 % 1017,8 hPa 0,0 l/m 0,7 km/h (0 Bft) SO 1,9 C 2,8 C
22.11.2012 00:00 2,2 C 94 % 1018,2 hPa 0,0 l/m 0,8 km/h (0 Bft) SO 1,3 C 2,2 C
22.11.2012 01:00 3,2 C 94 % 1018,3 hPa 0,0 l/m 2,8 km/h (1 Bft) S-SO 2,3 C 2,9 C
22.11.2012 02:00 3,4 C 94 % 1018,4 hPa 0,0 l/m 4,0 km/h (1 Bft) S-SO 2,6 C 2,8 C
22.11.2012 03:00 3,5 C 95 % 1018,6 hPa 0,0 l/m 4,7 km/h (1 Bft) S 2,7 C 2,6 C
22.11.2012 04:00 3,5 C 95 % 1018,7 hPa 0,0 l/m 6,3 km/h (2 Bft) S-SW 2,8 C 2,1 C
22.11.2012 05:00 4,6 C 95 % 1019,2 hPa 0,0 l/m 10,8 km/h (2 Bft) SW 3,8 C 2,3 C
22.11.2012 06:00 5,8 C 94 % 1019,8 hPa 0,0 l/m 8,9 km/h (2 Bft) S-SW 5,0 C 4,0 C
22.11.2012 07:00 6,3 C 93 % 1020,4 hPa 0,0 l/m 7,8 km/h (2 Bft) SW 5,1 C 4,8 C
22.11.2012 08:00 6,7 C 91 % 1021,2 hPa 0,0 l/m 10,0 km/h (2 Bft) W-SW 5,3 C 4,8 C
22.11.2012 09:00 7,4 C 90 % 1022,1 hPa 0,0 l/m 8,5 km/h (2 Bft) W-SW 5,8 C 5,9 C
22.11.2012 10:00 8,6 C 85 % 1022,9 hPa 0,0 l/m 11,3 km/h (2 Bft) W-SW 6,3 C 6,9 C
22.11.2012 11:00 9,2 C 82 % 1023,2 hPa 0,0 l/m 16,8 km/h (3 Bft) W 6,2 C 6,9 C
22.11.2012 12:00 9,4 C 79 % 1023,4 hPa 0,0 l/m 13,6 km/h (3 Bft) W-SW 6,0 C 7,5 C
22.11.2012 13:00 9,6 C 79 % 1023,3 hPa 0,0 l/m 7,2 km/h (2 Bft) W-SW 6,1 C 8,8 C
22.11.2012 14:00 9,9 C 78 % 1023,3 hPa 0,0 l/m 7,3 km/h (2 Bft) W-SW 6,2 C 9,1 C
22.11.2012 15:00 9,0 C 78 % 1023,5 hPa 0,0 l/m 4,3 km/h (1 Bft) SW 5,4 C 8,7 C
22.11.2012 16:00 6,8 C 83 % 1023,7 hPa 0,0 l/m 1,7 km/h (1 Bft) S-SO 4,1 C 6,8 C
22.11.2012 17:00 5,2 C 86 % 1023,7 hPa 0,0 l/m 1,8 km/h (1 Bft) S-SO 3,1 C 5,2 C
22.11.2012 18:00 4,4 C 88 % 1023,6 hPa 0,0 l/m 4,0 km/h (1 Bft) S-SO 2,7 C 3,9 C
22.11.2012 19:00 4,0 C 89 % 1023,7 hPa 0,0 l/m 2,4 km/h (1 Bft) S-SW 2,3 C 3,7 C
22.11.2012 20:00 3,4 C 90 % 1023,6 hPa 0,0 l/m 2,1 km/h (1 Bft) S-SW 1,9 C 3,3 C
22.11.2012 21:00 2,9 C 91 % 1023,3 hPa 0,0 l/m 1,1 km/h (1 Bft) S 1,6 C 2,9 C
22.11.2012 22:00 2,9 C 91 % 1023,2 hPa 0,0 l/m 2,7 km/h (1 Bft) S 1,5 C 2,7 C
22.11.2012 23:00 2,5 C 92 % 1023,3 hPa 0,0 l/m 1,2 km/h (1 Bft) S 1,3 C 2,4 C
23.11.2012 00:00 2,2 C 92 % 1023,3 hPa 0,0 l/m 1,9 km/h (1 Bft) SO 1,0 C 2,1 C
23.11.2012 01:00 1,3 C 92 % 1023,2 hPa 0,0 l/m 1,6 km/h (1 Bft) SO 0,1 C 1,3 C
23.11.2012 02:00 0,6 C 92 % 1022,9 hPa 0,0 l/m 2,4 km/h (1 Bft) O-SO -0,5 C 0,6 C
23.11.2012 03:00 0,3 C 92 % 1022,4 hPa 0,0 l/m 2,4 km/h (1 Bft) O-SO -0,9 C 0,1 C
23.11.2012 04:00 0,1 C 93 % 1021,6 hPa 0,0 l/m 3,5 km/h (1 Bft) O-SO -0,9 C -0,8 C
23.11.2012 05:00 -0,1 C 93 % 1021,2 hPa 0,0 l/m 2,1 km/h (1 Bft) O-SO -1,1 C -0,3 C
23.11.2012 06:00 0,2 C 93 % 1021,0 hPa 0,0 l/m 3,7 km/h (1 Bft) S-SO -0,8 C -0,3 C
23.11.2012 07:00 0,4 C 93 % 1021,1 hPa 0,0 l/m 2,5 km/h (1 Bft) SO -0,6 C 0,2 C
23.11.2012 08:00 0,1 C 93 % 1021,0 hPa 0,0 l/m 4,2 km/h (1 Bft) SO -0,9 C -0,7 C
23.11.2012 09:00 0,5 C 93 % 1020,6 hPa 0,0 l/m 4,4 km/h (1 Bft) O-SO -0,4 C -0,4 C
23.11.2012 10:00 2,0 C 94 % 1020,4 hPa 0,0 l/m 6,4 km/h (2 Bft) SO 1,0 C 0,4 C
23.11.2012 11:00 3,6 C 93 % 1020,0 hPa 0,0 l/m 7,2 km/h (2 Bft) SO 2,5 C 1,9 C
23.11.2012 12:00 5,0 C 90 % 1019,3 hPa 0,0 l/m 8,1 km/h (2 Bft) S-SO 3,6 C 3,3 C
23.11.2012 13:00 5,6 C 89 % 1019,1 hPa 0,0 l/m 4,6 km/h (1 Bft) SO 3,9 C 5,0 C
23.11.2012 14:00 5,5 C 89 % 1018,9 hPa 0,0 l/m 6,5 km/h (2 Bft) S-SO 3,8 C 4,3 C
23.11.2012 15:00 5,0 C 89 % 1018,6 hPa 0,0 l/m 5,5 km/h (1 Bft) S-SO 3,4 C 4,1 C
23.11.2012 16:00 4,7 C 90 % 1018,6 hPa 0,0 l/m 4,1 km/h (1 Bft) S 3,2 C 4,2 C
23.11.2012 17:00 4,6 C 90 % 1018,5 hPa 0,0 l/m 4,4 km/h (1 Bft) S-SO 3,1 C 3,9 C
23.11.2012 18:00 4,4 C 90 % 1018,3 hPa 0,0 l/m 4,2 km/h (1 Bft) S-SO 2,9 C 3,9 C
23.11.2012 19:00 4,9 C 91 % 1018,4 hPa 0,5 l/m 4,4 km/h (1 Bft) S-SW 3,5 C 4,3 C
23.11.2012 20:00 5,2 C 91 % 1018,8 hPa 1,6 l/m 5,8 km/h (2 Bft) S-SW 3,9 C 4,2 C
23.11.2012 21:00 5,3 C 92 % 1018,9 hPa 1,0 l/m 4,0 km/h (1 Bft) S-SW 4,1 C 4,8 C
23.11.2012 22:00 5,3 C 93 % 1019,1 hPa 0,5 l/m 5,3 km/h (1 Bft) S-SW 4,2 C 4,5 C
23.11.2012 23:00 5,4 C 93 % 1019,2 hPa 0,5 l/m 5,0 km/h (1 Bft) S 4,4 C 4,7 C
24.11.2012 00:00 5,6 C 93 % 1019,4 hPa 0,0 l/m 5,1 km/h (1 Bft) SW 4,5 C 4,7 C
24.11.2012 01:00 5,8 C 93 % 1019,4 hPa 0,0 l/m 2,7 km/h (1 Bft) SW 4,7 C 5,7 C
24.11.2012 02:00 5,9 C 93 % 1019,7 hPa 0,0 l/m 3,1 km/h (1 Bft) S-SW 4,8 C 5,8 C
24.11.2012 03:00 5,8 C 93 % 1019,9 hPa 0,0 l/m 1,4 km/h (1 Bft) S-SW 4,8 C 5,8 C
24.11.2012 04:00 5,6 C 93 % 1020,0 hPa 0,0 l/m 0,5 km/h (0 Bft) S-SW 4,6 C 5,6 C
24.11.2012 05:00 5,6 C 93 % 1020,0 hPa 0,0 l/m 0,0 km/h (0 Bft) N 4,6 C 5,6 C
24.11.2012 06:00 5,7 C 94 % 1020,1 hPa 0,0 l/m 0,1 km/h (0 Bft) S-SW 4,7 C 5,7 C
24.11.2012 07:00 5,8 C 94 % 1020,3 hPa 0,0 l/m 0,5 km/h (0 Bft) O-SO 4,9 C 5,8 C
24.11.2012 08:00 5,6 C 94 % 1020,9 hPa 0,0 l/m 1,6 km/h (1 Bft) NO 4,7 C 5,6 C
24.11.2012 09:00 5,6 C 94 % 1021,3 hPa 0,0 l/m 2,2 km/h (1 Bft) NO 4,7 C 5,5 C
24.11.2012 10:00 5,6 C 95 % 1021,5 hPa 0,0 l/m 1,9 km/h (1 Bft) O-NO 4,9 C 5,6 C
24.11.2012 11:00 5,8 C 95 % 1021,6 hPa 0,0 l/m 2,8 km/h (1 Bft) O-NO 4,9 C 5,5 C
24.11.2012 12:00 5,9 C 94 % 1021,5 hPa 0,0 l/m 2,4 km/h (1 Bft) O-SO 5,0 C 5,9 C
24.11.2012 13:00 5,9 C 93 % 1021,4 hPa 0,0 l/m 3,3 km/h (1 Bft) O 4,9 C 5,7 C
24.11.2012 14:00 5,9 C 93 % 1021,3 hPa 0,0 l/m 2,6 km/h (1 Bft) O-SO 4,9 C 5,8 C
24.11.2012 15:00 5,8 C 93 % 1021,4 hPa 0,0 l/m 2,6 km/h (1 Bft) O-SO 4,8 C 5,8 C
24.11.2012 16:00 5,2 C 94 % 1021,4 hPa 0,0 l/m 5,4 km/h (1 Bft) O-NO 4,3 C 4,3 C
24.11.2012 17:00 4,5 C 94 % 1021,2 hPa 0,0 l/m 8,2 km/h (2 Bft) O-SO 3,6 C 2,8 C
24.11.2012 18:00 4,1 C 94 % 1021,1 hPa 0,0 l/m 10,4 km/h (2 Bft) O-SO 3,2 C 1,6 C
24.11.2012 19:00 4,1 C 95 % 1021,0 hPa 0,0 l/m 6,5 km/h (2 Bft) O-SO 3,4 C 2,8 C
24.11.2012 20:00 4,6 C 95 % 1020,6 hPa 0,0 l/m 7,6 km/h (2 Bft) O-SO 3,9 C 3,1 C
24.11.2012 21:00 4,8 C 95 % 1020,0 hPa 0,0 l/m 6,5 km/h (2 Bft) O-SO 4,1 C 3,5 C
24.11.2012 22:00 4,8 C 94 % 1019,5 hPa 0,5 l/m 6,0 km/h (2 Bft) O-SO 3,9 C 3,7 C
24.11.2012 23:00 4,9 C 94 % 1018,8 hPa 0,0 l/m 7,8 km/h (2 Bft) O-SO 4,0 C 3,2 C
25.11.2012 00:00 5,1 C 94 % 1017,9 hPa 1,0 l/m 8,9 km/h (2 Bft) O-SO 4,2 C 3,1 C
25.11.2012 01:00 5,3 C 95 % 1017,1 hPa 0,0 l/m 6,9 km/h (2 Bft) O-SO 4,5 C 3,9 C
25.11.2012 02:00 5,5 C 95 % 1016,6 hPa 0,0 l/m 6,1 km/h (2 Bft) SO 4,8 C 4,6 C
25.11.2012 03:00 5,8 C 95 % 1015,3 hPa 0,0 l/m 6,5 km/h (2 Bft) O-NO 5,1 C 4,7 C
25.11.2012 04:00 6,1 C 95 % 1014,4 hPa 0,0 l/m 9,1 km/h (2 Bft) O-SO 5,4 C 4,4 C
25.11.2012 05:00 6,2 C 95 % 1013,2 hPa 0,0 l/m 11,5 km/h (2 Bft) SO 5,5 C 4,0 C
25.11.2012 06:00 6,1 C 94 % 1012,2 hPa 0,0 l/m 10,1 km/h (2 Bft) SO 5,2 C 4,1 C
25.11.2012 07:00 6,1 C 94 % 1011,5 hPa 0,0 l/m 11,8 km/h (2 Bft) SO 5,2 C 3,7 C
25.11.2012 08:00 6,2 C 93 % 1010,8 hPa 0,5 l/m 7,0 km/h (2 Bft) O-SO 5,1 C 4,9 C
25.11.2012 09:00 6,3 C 93 % 1010,2 hPa 0,0 l/m 8,1 km/h (2 Bft) SO 5,3 C 4,9 C
25.11.2012 10:00 7,1 C 92 % 1009,7 hPa 0,0 l/m 9,1 km/h (2 Bft) SO 5,9 C 5,5 C
25.11.2012 11:00 8,0 C 91 % 1009,1 hPa 0,0 l/m 8,7 km/h (2 Bft) S-SW 6,5 C 6,7 C
25.11.2012 12:00 8,9 C 88 % 1008,4 hPa 0,0 l/m 8,5 km/h (2 Bft) SW 7,1 C 7,7 C
25.11.2012 13:00 10,2 C 85 % 1008,2 hPa 0,0 l/m 10,8 km/h (2 Bft) SW 7,8 C 9,8 C
25.11.2012 14:00 11,0 C 82 % 1008,1 hPa 0,0 l/m 12,5 km/h (3 Bft) W-SW 8,1 C 11,0 C
25.11.2012 15:00 10,7 C 83 % 1008,8 hPa 0,0 l/m 9,1 km/h (2 Bft) W-SW 7,9 C 10,7 C
25.11.2012 16:00 9,7 C 82 % 1009,6 hPa 0,0 l/m 12,4 km/h (3 Bft) W-SW 6,8 C 8,6 C
25.11.2012 17:00 8,9 C 82 % 1010,3 hPa 0,0 l/m 8,1 km/h (2 Bft) W-SW 5,9 C 7,8 C
25.11.2012 18:00 8,0 C 80 % 1010,8 hPa 0,0 l/m 6,9 km/h (2 Bft) S-SW 4,7 C 7,0 C
25.11.2012 19:00 7,7 C 76 % 1011,2 hPa 0,0 l/m 9,0 km/h (2 Bft) S-SW 3,7 C 6,2 C
25.11.2012 20:00 7,0 C 75 % 1011,3 hPa 0,0 l/m 11,2 km/h (2 Bft) S-SW 2,8 C 4,9 C
25.11.2012 21:00 6,9 C 76 % 1011,4 hPa 0,0 l/m 11,4 km/h (2 Bft) W-SW 2,9 C 4,8 C
25.11.2012 22:00 7,0 C 75 % 1011,6 hPa 0,0 l/m 13,7 km/h (3 Bft) S-SW 2,8 C 4,5 C
25.11.2012 23:00 6,6 C 76 % 1011,8 hPa 0,0 l/m 9,2 km/h (2 Bft) S-SW 2,7 C 4,8 C
Min-Datum _ 23.11.12 25.11.12 25.11.12 - 19.11.12 - 23.11.12 23.11.12
_ Min-Zeit 05:41 19:36 14:11 - 00:01 - 05:41 08:16
Minimum _ -0,2 C 74 % 1007,9 hPa - 0,0 km/h (0 Bft) - -1,2 C -2,7 C
Max-Datum _ 25.11.12 19.11.12 22.11.12 23.11.12 22.11.12 - 25.11.12 25.11.12
_ Max-Zeit 14:41 12:56 16:41 20:11 11:31 - 15:01 14:41
Maximum _ 11,3 C 95 % 1023,9 hPa 1,6 l/m 28,8 km/h
W (4 Bft)
- 8,3 C 11,3 C
Durchschnitt _ 5,3 C 92 % 1019,2 hPa #6,7 l/m 5,4 km/h (1 Bft) SO 4,0 C 4,4 C
(c) by David Heller